Time,TemperatureF,DewpointF,PressureIn,WindDirection,WindDirectionDegrees,WindSpeedMPH,WindSpeedGustMPH,Humidity,HourlyPrecipIn,Conditions,Clouds,dailyrainin,SoftwareType,DateUTC
2013-03-25 00:03:00,36.0,28.0,29.64,WNW,288,12.0,20.0,73,0.00,,,-99.99,,2013-03-25 04:03:00,
2013-03-25 00:12:00,36.0,28.0,29.64,WNW,288,12.0,20.0,73,0.00,,,-99.99,,2013-03-25 04:12:00,
2013-03-25 00:22:00,36.0,28.0,29.64,WNW,288,12.0,20.0,73,0.00,,,-99.99,,2013-03-25 04:22:00,
2013-03-25 00:33:00,35.0,27.0,29.66,West,264,8.0,23.0,73,0.00,,,-99.99,,2013-03-25 04:33:00,
2013-03-25 00:43:00,35.0,27.0,29.66,West,264,8.0,23.0,73,0.00,,,-99.99,,2013-03-25 04:43:00,
2013-03-25 00:52:00,35.0,27.0,29.66,WNW,286,9.0,25.0,72,0.00,,,-99.99,,2013-03-25 04:52:00,
2013-03-25 01:03:00,34.0,26.0,29.67,WNW,288,10.0,20.0,71,0.00,,,-99.99,,2013-03-25 05:03:00,
2013-03-25 01:12:00,34.0,26.0,29.67,WNW,288,10.0,20.0,71,0.00,,,-99.99,,2013-03-25 05:12:00,
2013-03-25 01:22:00,34.0,26.0,29.68,NW,307,9.0,20.0,72,0.00,,,-99.99,,2013-03-25 05:22:00,
2013-03-25 01:33:00,34.0,25.0,29.68,West,280,9.0,22.0,70,0.00,,,-99.99,,2013-03-25 05:33:00,
2013-03-25 01:42:00,34.0,25.0,29.68,West,280,9.0,22.0,70,0.00,,,-99.99,,2013-03-25 05:42:00,
2013-03-25 01:52:00,33.0,24.0,29.68,NW,311,6.0,20.0,70,0.00,,,-99.99,,2013-03-25 05:52:00,
2013-03-25 02:02:00,33.0,24.0,29.69,WNW,292,6.0,19.0,70,0.00,,,-99.99,,2013-03-25 06:02:00,
2013-03-25 02:12:00,33.0,24.0,29.69,WNW,292,6.0,19.0,70,0.00,,,-99.99,,2013-03-25 06:12:00,
2013-03-25 02:22:00,33.0,24.0,29.69,WNW,303,11.0,30.0,68,0.00,,,-99.99,,2013-03-25 06:22:00,
2013-03-25 02:32:00,33.0,24.0,29.70,WNW,295,13.0,23.0,68,0.00,,,-99.99,,2013-03-25 06:32:00,
2013-03-25 02:42:00,33.0,24.0,29.70,WNW,295,13.0,23.0,68,0.00,,,-99.99,,2013-03-25 06:42:00,
2013-03-25 02:52:00,33.0,24.0,29.71,NW,308,8.0,26.0,69,0.00,,,-99.99,,2013-03-25 06:52:00,
2013-03-25 03:02:00,32.0,22.0,29.70,West,276,8.0,18.0,67,0.00,,,-99.99,,2013-03-25 07:02:00,
2013-03-25 03:12:00,32.0,22.0,29.70,West,276,8.0,18.0,67,0.00,,,-99.99,,2013-03-25 07:12:00,
2013-03-25 03:22:00,32.0,22.0,29.71,NW,311,8.0,19.0,67,0.00,,,-99.99,,2013-03-25 07:22:00,
2013-03-25 03:32:00,32.0,23.0,29.71,WNW,286,4.0,18.0,68,0.00,,,-99.99,,2013-03-25 07:32:00,
2013-03-25 03:42:00,32.0,23.0,29.71,WNW,286,4.0,18.0,68,0.00,,,-99.99,,2013-03-25 07:42:00,
2013-03-25 03:52:00,32.0,22.0,29.71,WNW,292,14.0,30.0,67,0.00,,,-99.99,,2013-03-25 07:52:00,
2013-03-25 04:03:00,31.0,22.0,29.71,WNW,296,12.0,22.0,68,0.00,,,-99.99,,2013-03-25 08:03:00,
2013-03-25 04:12:00,31.0,22.0,29.71,WNW,296,12.0,22.0,68,0.00,,,-99.99,,2013-03-25 08:12:00,
2013-03-25 04:23:00,31.0,22.0,29.72,NW,307,9.0,21.0,69,0.00,,,-99.99,,2013-03-25 08:23:00,
2013-03-25 04:32:00,31.0,23.0,29.70,WNW,286,10.0,15.0,71,0.00,,,-99.99,,2013-03-25 08:32:00,
2013-03-25 04:43:00,31.0,23.0,29.70,WNW,286,10.0,15.0,71,0.00,,,-99.99,,2013-03-25 08:43:00,
2013-03-25 04:52:00,31.0,23.0,29.69,WNW,291,7.0,13.0,72,0.00,,,-99.99,,2013-03-25 08:52:00,
2013-03-25 05:02:00,31.0,23.0,29.69,WNW,292,10.0,19.0,71,0.00,,,-99.99,,2013-03-25 09:02:00,
2013-03-25 05:12:00,31.0,23.0,29.69,WNW,292,10.0,19.0,71,0.00,,,-99.99,,2013-03-25 09:12:00,
2013-03-25 05:22:00,31.0,23.0,29.70,WNW,298,10.0,20.0,72,0.00,,,-99.99,,2013-03-25 09:22:00,
2013-03-25 05:33:00,31.0,23.0,29.70,WNW,302,7.0,20.0,72,0.00,,,-99.99,,2013-03-25 09:33:00,
2013-03-25 05:43:00,31.0,23.0,29.70,WNW,302,7.0,20.0,72,0.00,,,-99.99,,2013-03-25 09:43:00,
2013-03-25 05:52:00,31.0,23.0,29.70,NW,307,6.0,15.0,73,0.00,,,-99.99,,2013-03-25 09:52:00,
2013-03-25 06:03:00,31.0,24.0,29.71,WNW,302,8.0,14.0,74,0.00,,,-99.99,,2013-03-25 10:03:00,
2013-03-25 06:12:00,31.0,24.0,29.71,WNW,302,8.0,14.0,74,0.00,,,-99.99,,2013-03-25 10:12:00,
2013-03-25 06:22:00,30.0,23.0,29.71,WNW,284,8.0,15.0,74,0.00,,,-99.99,,2013-03-25 10:22:00,
2013-03-25 06:33:00,30.0,23.0,29.72,NW,310,4.0,11.0,75,0.00,,,-99.99,,2013-03-25 10:33:00,
2013-03-25 06:42:00,30.0,23.0,29.72,NW,310,4.0,11.0,75,0.00,,,-99.99,,2013-03-25 10:42:00,
2013-03-25 06:53:00,30.0,23.0,29.72,WNW,290,5.0,11.0,76,0.00,,,-99.99,,2013-03-25 10:53:00,
2013-03-25 07:03:00,29.0,22.0,29.72,WNW,291,11.0,20.0,76,0.00,,,-99.99,,2013-03-25 11:03:00,
2013-03-25 07:12:00,29.0,22.0,29.72,WNW,291,11.0,20.0,76,0.00,,,-99.99,,2013-03-25 11:12:00,
2013-03-25 07:23:00,29.0,22.0,29.73,WNW,293,6.0,17.0,76,0.00,,,-99.99,,2013-03-25 11:23:00,
2013-03-25 07:32:00,29.0,22.0,29.74,NW,309,7.0,13.0,76,0.00,,,-99.99,,2013-03-25 11:32:00,
2013-03-25 07:42:00,29.0,22.0,29.74,NW,309,7.0,13.0,76,0.00,,,-99.99,,2013-03-25 11:42:00,
2013-03-25 07:52:00,29.0,22.0,29.74,NW,309,7.0,13.0,76,0.00,,,-99.99,,2013-03-25 11:52:00,
2013-03-25 08:03:00,29.0,23.0,29.74,West,279,6.0,19.0,78,0.00,,,0.15,,2013-03-25 12:03:00,
2013-03-25 08:13:00,29.0,23.0,29.74,West,279,6.0,19.0,78,0.00,,,0.15,,2013-03-25 12:13:00,
2013-03-25 08:23:00,29.0,23.0,29.74,WNW,291,7.0,14.0,78,0.00,,,0.15,,2013-03-25 12:23:00,
2013-03-25 08:32:00,29.0,23.0,29.75,West,273,4.0,21.0,79,0.00,,,0.15,,2013-03-25 12:32:00,
2013-03-25 08:43:00,29.0,23.0,29.75,West,273,4.0,21.0,79,0.00,,,0.15,,2013-03-25 12:43:00,
2013-03-25 08:53:00,29.0,24.0,29.75,WNW,291,5.0,19.0,80,0.00,,,0.15,,2013-03-25 12:53:00,
2013-03-25 09:03:00,29.0,24.0,29.76,WNW,292,3.0,18.0,82,0.00,,,0.15,,2013-03-25 13:03:00,
2013-03-25 09:13:00,29.0,24.0,29.76,WNW,292,3.0,18.0,82,0.00,,,0.15,,2013-03-25 13:13:00,
2013-03-25 09:23:00,29.0,24.0,29.77,West,265,4.0,20.0,82,0.00,,,0.15,,2013-03-25 13:23:00,
2013-03-25 09:32:00,28.0,24.0,29.77,NW,307,7.0,23.0,84,0.00,,,0.15,,2013-03-25 13:32:00,
2013-03-25 09:43:00,28.0,24.0,29.77,NW,307,7.0,23.0,84,0.00,,,0.15,,2013-03-25 13:43:00,
2013-03-25 09:52:00,29.0,25.0,29.78,NW,313,8.0,20.0,85,0.00,,,0.15,,2013-03-25 13:52:00,
2013-03-25 10:03:00,29.0,25.0,29.79,West,279,6.0,20.0,85,0.00,,,0.15,,2013-03-25 14:03:00,
2013-03-25 10:12:00,29.0,25.0,29.79,West,279,6.0,20.0,85,0.00,,,0.15,,2013-03-25 14:12:00,
2013-03-25 10:23:00,29.0,25.0,29.79,WNW,298,13.0,20.0,85,0.00,,,0.15,,2013-03-25 14:23:00,
2013-03-25 10:32:00,29.0,25.0,29.80,NW,313,8.0,18.0,85,0.00,,,0.15,,2013-03-25 14:32:00,
2013-03-25 10:42:00,29.0,25.0,29.80,NW,313,8.0,18.0,85,0.00,,,0.15,,2013-03-25 14:42:00,
2013-03-25 10:52:00,30.0,25.0,29.80,NW,325,7.0,21.0,82,0.00,,,0.14,,2013-03-25 14:52:00,
2013-03-25 11:03:00,30.0,25.0,29.81,WNW,282,9.0,23.0,81,0.00,,,0.14,,2013-03-25 15:03:00,
2013-03-25 11:13:00,30.0,25.0,29.81,WNW,282,9.0,23.0,81,0.00,,,0.14,,2013-03-25 15:13:00,
2013-03-25 11:23:00,30.0,25.0,29.82,West,272,11.0,22.0,81,0.00,,,0.14,,2013-03-25 15:23:00,
2013-03-25 11:33:00,31.0,25.0,29.83,West,281,8.0,22.0,79,0.00,,,0.14,,2013-03-25 15:33:00,
2013-03-25 11:42:00,31.0,25.0,29.83,West,281,8.0,22.0,79,0.00,,,0.14,,2013-03-25 15:42:00,
2013-03-25 11:53:00,31.0,26.0,29.83,West,277,5.0,18.0,83,0.00,,,0.14,,2013-03-25 15:53:00,
2013-03-25 12:03:00,31.0,25.0,29.83,WNW,284,8.0,17.0,77,0.00,,,0.14,,2013-03-25 16:03:00,
2013-03-25 12:12:00,31.0,25.0,29.83,WNW,284,8.0,17.0,77,0.00,,,0.14,,2013-03-25 16:12:00,
2013-03-25 12:23:00,31.0,25.0,29.83,WNW,284,8.0,17.0,77,0.00,,,0.14,,2013-03-25 16:23:00,
2013-03-25 12:33:00,30.0,25.0,29.86,West,278,5.0,12.0,80,0.00,,,0.14,,2013-03-25 16:33:00,
2013-03-25 12:44:00,30.0,25.0,29.86,West,278,5.0,12.0,80,0.00,,,0.14,,2013-03-25 16:44:00,
2013-03-25 12:53:00,30.0,24.0,29.87,SW,223,2.0,12.0,79,0.00,,,0.14,,2013-03-25 16:53:00,
2013-03-25 13:03:00,31.0,24.0,29.87,WNW,292,3.0,15.0,74,0.00,,,0.14,,2013-03-25 17:03:00,
2013-03-25 13:12:00,31.0,24.0,29.87,WNW,292,3.0,15.0,74,0.00,,,0.14,,2013-03-25 17:12:00,
2013-03-25 13:24:00,31.0,24.0,29.87,WNW,292,3.0,15.0,74,0.00,,,0.14,,2013-03-25 17:24:00,
2013-03-25 13:33:00,31.0,23.0,29.88,NW,314,4.0,13.0,73,0.00,,,0.14,,2013-03-25 17:33:00,
2013-03-25 13:43:00,31.0,23.0,29.88,NW,314,4.0,13.0,73,0.00,,,0.14,,2013-03-25 17:43:00,
2013-03-25 13:53:00,30.0,23.0,29.88,WNW,294,7.0,24.0,74,0.00,,,0.14,,2013-03-25 17:53:00,
2013-03-25 14:04:00,30.0,23.0,29.89,WNW,286,9.0,17.0,74,0.00,,,0.14,,2013-03-25 18:04:00,
2013-03-25 14:13:00,30.0,23.0,29.89,WNW,286,9.0,17.0,74,0.00,,,0.14,,2013-03-25 18:13:00,
2013-03-25 14:23:00,30.0,23.0,29.89,WNW,294,8.0,17.0,76,0.00,,,0.14,,2013-03-25 18:23:00,
2013-03-25 14:33:00,30.0,23.0,29.89,WNW,292,3.0,13.0,76,0.00,,,0.14,,2013-03-25 18:33:00,
2013-03-25 14:43:00,30.0,23.0,29.89,WNW,292,3.0,13.0,76,0.00,,,0.14,,2013-03-25 18:43:00,
2013-03-25 14:52:00,30.0,23.0,29.86,WNW,285,9.0,20.0,74,0.00,,,0.14,,2013-03-25 18:52:00,
2013-03-25 15:03:00,31.0,23.0,29.86,NW,325,6.0,14.0,73,0.00,,,0.14,,2013-03-25 19:03:00,
2013-03-25 15:13:00,31.0,23.0,29.86,NW,325,6.0,14.0,73,0.00,,,0.14,,2013-03-25 19:13:00,
2013-03-25 15:23:00,31.0,23.0,29.87,WNW,286,5.0,19.0,72,0.00,,,0.14,,2013-03-25 19:23:00,
2013-03-25 15:33:00,31.0,23.0,29.88,WNW,302,8.0,16.0,72,0.00,,,0.14,,2013-03-25 19:33:00,
2013-03-25 15:43:00,31.0,23.0,29.88,WNW,302,8.0,16.0,72,0.00,,,0.14,,2013-03-25 19:43:00,
2013-03-25 15:52:00,30.0,22.0,29.88,NW,307,8.0,19.0,73,0.00,,,0.14,,2013-03-25 19:52:00,
2013-03-25 16:02:00,31.0,23.0,29.88,WNW,284,8.0,15.0,73,0.00,,,0.14,,2013-03-25 20:02:00,
2013-03-25 16:12:00,31.0,23.0,29.88,WNW,284,8.0,15.0,73,0.00,,,0.14,,2013-03-25 20:12:00,
2013-03-25 16:22:00,31.0,23.0,29.88,WNW,284,8.0,15.0,73,0.00,,,0.14,,2013-03-25 20:22:00,
2013-03-25 16:32:00,31.0,23.0,29.89,WSW,254,9.0,15.0,72,0.00,,,0.14,,2013-03-25 20:32:00,
2013-03-25 16:42:00,31.0,23.0,29.89,WSW,254,9.0,15.0,72,0.00,,,0.14,,2013-03-25 20:42:00,
2013-03-25 16:52:00,31.0,23.0,29.89,WSW,254,9.0,15.0,72,0.00,,,0.14,,2013-03-25 20:52:00,
2013-03-25 17:03:00,31.0,24.0,29.90,NW,315,4.0,15.0,74,0.00,,,0.14,,2013-03-25 21:03:00,
2013-03-25 17:12:00,31.0,24.0,29.90,NW,315,4.0,15.0,74,0.00,,,0.14,,2013-03-25 21:12:00,
2013-03-25 17:22:00,31.0,23.0,29.90,WNW,301,6.0,17.0,72,0.00,,,0.14,,2013-03-25 21:22:00,
2013-03-25 17:33:00,31.0,23.0,29.91,NW,304,4.0,16.0,73,0.00,,,0.14,,2013-03-25 21:33:00,
2013-03-25 17:43:00,31.0,23.0,29.91,NW,304,4.0,16.0,73,0.00,,,0.14,,2013-03-25 21:43:00,
2013-03-25 17:52:00,31.0,23.0,29.92,SW,233,5.0,15.0,73,0.00,,,0.07,,2013-03-25 21:52:00,
2013-03-25 18:03:00,30.0,23.0,29.92,WNW,287,3.0,14.0,76,0.00,,,0.07,,2013-03-25 22:03:00,
2013-03-25 18:13:00,30.0,23.0,29.92,WNW,287,3.0,14.0,76,0.00,,,0.07,,2013-03-25 22:13:00,
2013-03-25 18:23:00,30.0,23.0,29.93,WNW,303,7.0,14.0,75,0.00,,,0.07,,2013-03-25 22:23:00,
2013-03-25 18:33:00,30.0,23.0,29.93,NW,304,6.0,17.0,76,0.00,,,0.07,,2013-03-25 22:33:00,
2013-03-25 18:42:00,30.0,23.0,29.93,NW,304,6.0,17.0,76,0.00,,,0.07,,2013-03-25 22:42:00,
2013-03-25 18:52:00,30.0,23.0,29.94,WNW,290,9.0,12.0,76,0.00,,,0.00,,2013-03-25 22:52:00,
2013-03-25 19:03:00,30.0,24.0,29.94,NW,321,4.0,17.0,77,0.00,,,0.00,,2013-03-25 23:03:00,
2013-03-25 19:12:00,30.0,24.0,29.94,NW,321,4.0,17.0,77,0.00,,,0.00,,2013-03-25 23:12:00,
2013-03-25 19:23:00,29.0,23.0,29.96,WNW,284,4.0,18.0,78,0.00,,,0.00,,2013-03-25 23:23:00,
2013-03-25 19:33:00,29.0,24.0,29.97,WNW,293,4.0,11.0,81,0.00,,,0.00,,2013-03-25 23:33:00,
2013-03-25 19:43:00,29.0,24.0,29.97,WNW,293,4.0,11.0,81,0.00,,,0.00,,2013-03-25 23:43:00,
2013-03-25 19:52:00,29.0,24.0,29.98,West,281,6.0,11.0,82,0.00,,,0.00,,2013-03-25 23:52:00,
2013-03-25 20:02:00,29.0,24.0,29.98,West,281,6.0,11.0,82,0.00,,,0.00,,2013-03-26 00:02:00,
2013-03-25 20:12:00,29.0,24.0,29.98,West,281,6.0,11.0,82,0.00,,,0.00,,2013-03-26 00:12:00,
2013-03-25 20:22:00,29.0,24.0,29.98,West,281,6.0,11.0,82,0.00,,,0.00,,2013-03-26 00:22:00,
2013-03-25 20:52:00,28.0,24.0,30.00,WNW,298,5.0,12.0,85,0.00,,,0.00,,2013-03-26 00:52:00,
2013-03-25 21:02:00,28.0,24.0,30.00,WNW,292,4.0,13.0,85,0.00,,,0.00,,2013-03-26 01:02:00,
2013-03-25 21:12:00,28.0,24.0,30.00,WNW,292,4.0,13.0,85,0.00,,,0.00,,2013-03-26 01:12:00,
2013-03-25 21:23:00,28.0,24.0,30.01,WNW,288,4.0,10.0,86,0.00,,,0.00,,2013-03-26 01:23:00,
2013-03-25 21:32:00,28.0,25.0,30.02,WNW,300,4.0,10.0,87,0.00,,,0.00,,2013-03-26 01:32:00,
2013-03-25 21:42:00,28.0,25.0,30.02,WNW,300,4.0,10.0,87,0.00,,,0.00,,2013-03-26 01:42:00,
2013-03-25 21:52:00,28.0,25.0,30.02,WNW,290,6.0,12.0,87,0.00,,,0.00,,2013-03-26 01:52:00,
2013-03-25 22:02:00,28.0,24.0,30.02,West,280,6.0,9.0,85,0.00,,,0.00,,2013-03-26 02:02:00,
2013-03-25 22:12:00,28.0,24.0,30.02,West,280,6.0,9.0,85,0.00,,,0.00,,2013-03-26 02:12:00,
2013-03-25 22:22:00,28.0,24.0,30.03,WNW,294,5.0,7.0,84,0.00,,,0.00,,2013-03-26 02:22:00,
2013-03-25 22:32:00,28.0,24.0,30.03,NW,310,4.0,12.0,83,0.00,,,0.00,,2013-03-26 02:32:00,
2013-03-25 22:42:00,28.0,24.0,30.03,NW,310,4.0,12.0,83,0.00,,,0.00,,2013-03-26 02:42:00,
2013-03-25 22:52:00,28.0,24.0,30.03,WNW,286,3.0,9.0,84,0.00,,,0.00,,2013-03-26 02:52:00,
2013-03-25 23:02:00,28.0,24.0,30.03,West,279,6.0,11.0,84,0.00,,,0.00,,2013-03-26 03:02:00,
2013-03-25 23:12:00,28.0,24.0,30.03,West,279,6.0,11.0,84,0.00,,,0.00,,2013-03-26 03:12:00,
2013-03-25 23:22:00,28.0,24.0,30.03,WNW,288,2.0,9.0,85,0.00,,,0.00,,2013-03-26 03:22:00,
2013-03-25 23:34:00,28.0,24.0,30.04,WNW,288,4.0,11.0,86,0.00,,,0.00,,2013-03-26 03:34:00,
2013-03-25 23:42:00,28.0,24.0,30.04,WNW,288,4.0,11.0,86,0.00,,,0.00,,2013-03-26 03:42:00,
2013-03-25 23:53:00,28.0,25.0,30.04,WNW,284,2.0,9.0,87,0.00,,,0.00,,2013-03-26 03:53:00,